Starlink 5994

operational
NORAD ID: 56457 Int'l Des: 2023-064 Owner: SPXS Country: US Constellation: starlink
LEOCIRCULAR

Starlink 5994について

説明を読み込み中...

リアルタイム位置

3D地球を読み込み中...

次回通過

高度履歴

Altitude vs Time

uPlot chart will show altitude changes over time

軌道要素

1 56457U 23064K 26035.83084975 .00000695 00000-0 66034-4 0 9995
2 56457 69.9992 227.3204 0002808 271.6161 88.4677 14.98333882150325
Epoch: Feb 4, 2026 • Age: 9 hours

現在のステータス

高度 591.5 km
速度 7.56 km/s
衛星直下点 -56.09°S, 131.82°W
打ち上げ日 May 10, 2023
運用期間 2.7 years
タイプ internet

技術仕様

分類 Payload
質量 305.00 kg
乾燥質量 290.00 kg
総質量 305.00 kg
長さ 0.20 m
直径 2.80 m
スパン 9.00 m
形状 Box + pan
製造者 SPXS
バスタイプ Starlink
フェーズステータス In Orbit
所有者/国 SPXS/US

大規模コンステレーション

Loading constellations...